Location: Altleiningen
(49.5078°N, 8.0741°E)
Time: 04:59:10
(UTC+00:00)

COSMOS 2428 - Pass Details

Date: 03 March 2021
Orbit: 846 x 857 km, 70.9° (Epoch: 11 April)

Event Time Altitude Azimuth Distance (km) Brightness Sun altitude
Rises 19:17:24 0° 187° (S) 3,392 5.8 -20.7°
Reaches altitude 10° 19:19:55 10° 181° (S) 2,462 5.0 -21.1°
Enters shadow 19:24:48 45° 125° (SE) 1,141 2.9 -21.9°
Exits shadow 19:32:05 - 35° (NE) 2,996 5.4 -23.0°
Sets 19:33:13 0° 33° (NNE) 3,425 5.7 -23.2°
